Regional Weather Roundup
Issued by NWS

Home | Current Version | Previous Version | Text Only | Print | Product List | Glossary Off
Versions: 1 2 3 4 5 6 7 8 9 10 11 12 13 14 15 16 17 18 19 20 21 22 23 24 25 26 27 28 29 30 31 32 33 34 35 36 37 38 39 40 41 42 43 44 45 46 47 48 49 50

000
ASUS43 KMKX 220421
RWRWI

WISCONSIN REGIONAL WEATHER ROUNDUP
NATIONAL WEATHER SERVICE MILWAUKEE/SULLIVAN WI
1100 PM CDT THU MAY 21 2015

NOTE: "FAIR" INDICATES FEW OR NO CLOUDS BELOW 12,000 FEET WITH NO
SIGNIFICANT WEATHER AND/OR OBSTRUCTIONS TO VISIBILITY.

WIZ001-002-006>008-014>016-023>028-220500-
NORTHWEST WISCONSIN

CITY           SKY/WX    TMP DP  RH WIND       PRES   REMARKS
SUPERIOR ARPT  CLEAR     49  33  53 E3        30.08R
ASHLAND        CLEAR     42  36  79 W3        30.07R
HAYWARD        CLEAR     45  35  68 N3        30.07R
SIREN          CLEAR     47  35  62 CALM      30.08R
CUMBERLAND     CLEAR     50  34  53 N5        30.07R
RICE LAKE      CLEAR     48  40  75 CALM      30.08R
CHETEK         CLEAR     48  39  71 CALM      30.06R
LADYSMITH      CLEAR     46  39  75 N3        30.07R
EAU CLAIRE     CLEAR     50  38  63 NE5       30.05R
MENOMONIE      CLEAR     57  37  47 W7        30.06R
NEW RICHMOND   CLEAR     54  34  47 NW8       30.09R
OSCEOLA        CLEAR     48  40  73 CALM      30.11R
$$

WIZ003>005-009-010-017-018-220500-
NORTH CENTRAL WISCONSIN

CITY           SKY/WX    TMP DP  RH WIND       PRES   REMARKS
MANITOWISH WTR CLEAR     40  35  82 CALM      30.05R
ARBOR VITAE    CLEAR     43  34  71 CALM      30.06R
WOODRUFF       CLEAR     43  34  71 CALM      30.06R
RHINELANDER    CLEAR     40  31  70 CALM      30.06R
EAGLE RIVER    CLEAR     40  31  70 CALM      30.05R
LAND O LAKES   CLEAR     38  32  78 CALM      30.06R
PHILLIPS       CLEAR     42  36  79 CALM      30.06R
TOMAHAWK       CLEAR     37  32  83 CALM      30.06R
MEDFORD        CLEAR     43  33  66 CALM      30.05R
MERRILL        CLEAR     42  34  74 CALM      30.06R
$$

WIZ029-030-035-036-043>047-220500-
CENTRAL WISCONSIN

CITY           SKY/WX    TMP DP  RH WIND       PRES   REMARKS
WAUSAU         CLEAR     48  33  56 CALM      30.03R
MOSINEE        CLEAR     52  28  40 NE3       30.05S
MARSHFIELD     CLEAR     54  31  41 NE3       30.04R
STEVENS POINT  CLEAR     49  34  57 E3        30.06R
WAUPACA        CLEAR     51  38  60 E6        30.06R
WAUTOMA        CLEAR     54  39  56 E8        30.06R
WISC RAPIDS    CLEAR     53  28  38 NE5       30.05R
CAMP DOUGLAS   CLEAR     45  41  86 VRB2      30.03R
$$

WIZ011>013-019>022-031-037>040-048>050-220500-
NORTHEAST WISCONSIN

CITY           SKY/WX    TMP DP  RH WIND       PRES   REMARKS
ANTIGO         CLEAR     45  32  61 SE5       30.06R
SHAWANO        CLEAR     45  37  73 CALM      30.06S
OCONTO         CLEAR     39  36  91 CALM      30.06R
STURGEON BAY   CLEAR     45  27  49 NE5       30.09R
GREEN BAY      CLEAR     48  33  56 CALM      30.06R
MANITOWOC      CLOUDY    48  30  49 N3        30.06R
APPLETON       CLEAR     50  28  43 E8        30.06R
CLINTONVILLE   CLEAR     43  37  81 CALM      30.05F
OSHKOSH        PTCLDY    52  32  46 E7        30.05R
$$

WIZ032>034-041-042-053>061-220500-
SOUTHWEST WISCONSIN

CITY           SKY/WX    TMP DP  RH WIND       PRES   REMARKS
LA CROSSE      CLEAR     57  45  64 CALM      30.04R
SPARTA         CLEAR     49  41  72 CALM      30.06R
VIROQUA        CLEAR     55  39  54 CALM      30.05R
BOSCOBEL       CLEAR     53  43  68 CALM      30.04R
PRAIRIE DU CHI CLEAR     52  40  64 CALM      30.04S
PLATTEVILLE    CLEAR     59  35  40 CALM      30.04R
$$

WIZ056-057-062-063-064-067-068-220500-
SOUTH CENTRAL WISCONSIN

CITY           SKY/WX    TMP DP  RH WIND       PRES   REMARKS
REEDSBURG      CLEAR     53  40  61 CALM      30.04R
BARABOO/DELLS  CLEAR     57  35  43 CALM      30.03R
LONE ROCK      CLEAR     56  38  50 W6        30.03R
MINERAL POINT  CLEAR     59  32  36 W5        30.04R
MADISON        PTCLDY    60  43  53 NW6       30.01R
MIDDLETON      CLEAR     59  41  52 NW7       30.02R
WATERTOWN      PTCLDY    60  45  58 NE10      30.00R
MONROE         CLEAR     59  45  58 W12       30.02R
JANESVILLE     CLEAR     59  41  51 W6        30.00S
$$

WIZ051-052-058>065-066-070>072-220500-
SOUTHEAST WISCONSIN

CITY           SKY/WX    TMP DP  RH WIND       PRES   REMARKS
MILWAUKEE      LGT RAIN  53  42  66 VRB3      30.04R
WAUKESHA       CLOUDY    52  45  76 NE10      30.04R
MILWAUKEE/TIMM MOCLDY    50  37  62 NE9G16    30.05R
RACINE         LGT RAIN  51  44  77 N14       30.07R
BURLINGTON     CLOUDY    58  42  55 N7        30.01R
KENOSHA        LGT RAIN  61  43  51 N13G20    30.02R
FOND DU LAC    PTCLDY    51  30  44 E9        30.06R
SHEBOYGAN      MOCLDY    46  33  60 NE12      30.05R
WEST BEND      CLOUDY    50  34  53 NE7       30.05R
JUNEAU         CLEAR     53  39  60 NE15G22   30.04R
$$

LSZ147-162-220500-
LAKE SUPERIOR

STATION/POSITION TIME  TEMP    WIND        PRES    WAVE
                       AIR SEA DIR/SP/G            HT/PER
                 (UTC) (F)     (DEG/KT/KT) (MB)    (FT/S)
W MID LAKE BUOY  0350   40 36   90/  4/  6   N/A     0
DEVILS ISLAND    0400   55     350/ 10/ 11   N/A
PORT WING        0300   47      CALM  /  3   N/A
SAXON HARBOR     0300   47     200/  4/  5   N/A
$$

LMZ867-665-643>646-220500-
LAKE MICHIGAN

STATION/POSITION TIME  TEMP    WIND        PRES    WAVE
                       AIR SEA DIR/SP/G            HT/PER
                 (UTC) (F)     (DEG/KT/KT) (MB)    (FT/S)
CHAMBERS ISLAND  0300   51      40/  8/ 11   N/A
N MID LAKE BUOY  0350   43 36  310/  4/  6   N/A     1/ 4
NORTHPORT PIER   0340   49     360/  6/  9   N/A
SISTER BAY       0317   48      80/  4/  7   N/A
KEWAUNEE LAKESHO 0300           40/  5/  8   N/A
SHEBOYGAN LAKESH 0400           10/ 11/ 13   N/A
PORT WASHINGTON  0340   51      30/  7/ 10   N/A
ATWATER BUOY     0400   47 44  340/ 12/ 14   N/A
MILWAUKEE LAKESH 0400   51     330/  7/ 10   N/A
S MID LAKE BUOY  0350   47 38  270/ 10/ 12   N/A     1/ 4
KENOSHA   LAKESH 0400   60     340/ 18/ 21   N/A
$$

TC  - TEMPERATURE IN CELSIUS
VSB - VISIBILITY IN STATUTE MILES
WCI - WIND CHILL INDEX
HX  - HEAT INDEX




USA.gov is the U.S. government's official web portal to all federal, state and local government web resources and services.